Terug naar catalogus

STARLINK-11490

ActiefCommunicatieVLEO
NORAD 62219·PAYLOAD·🇺🇸 United States

Gelanceerd Dec 5, 2024 vanaf Vandenberg Space Force Base

Loading…

Volgende Passages (komende 24 uur)

TLE

VersSource: CelesTrak SupGP

Epoch: Sep 14, 2026, 21:00 UTC

1 62219C 24231B   26257.87548611  .00049445  00000+0  40737-3 0  2570
2 62219  53.1568 248.7138 0001138  89.2085 297.2808 15.69680300    13

Volg STARLINK-11490 in realtime met AllMySat

Download on the App Store